TimeBST,TemperatureF,Dew PointF,Humidity,Sea Level PressureIn,VisibilityMPH,Wind Direction,Wind SpeedMPH,Gust SpeedMPH,PrecipitationIn,Events,Conditions,WindDirDegrees,DateUTC
12:20 AM,44.6,32.0,61,29.92,6.2,NNW,11.5,-,N/A,,Unknown,340,2013-05-23 23:20:00
12:50 AM,44.6,32.0,61,29.92,-9999.0,NNW,10.4,-,N/A,,Clear,340,2013-05-23 23:50:00
1:20 AM,44.6,32.0,61,29.92,6.2,North,13.8,25.3,N/A,Rain,Light Rain,350,2013-05-24 00:20:00
1:50 AM,42.8,33.8,70,29.92,6.2,North,13.8,-,N/A,Rain,Light Rain,360,2013-05-24 00:50:00
2:20 AM,42.8,33.8,70,29.92,6.2,North,11.5,-,N/A,,Unknown,350,2013-05-24 01:20:00
2:50 AM,44.6,32.0,61,29.92,6.2,North,10.4,-,N/A,,Mostly Cloudy,350,2013-05-24 01:50:00
3:20 AM,44.6,32.0,61,29.92,6.2,NNW,10.4,-,N/A,Rain,Light Rain,340,2013-05-24 02:20:00
3:50 AM,44.6,32.0,61,29.92,6.2,NNW,9.2,-,N/A,Rain,Light Rain,340,2013-05-24 02:50:00
4:20 AM,44.6,33.8,66,29.92,6.2,NNW,5.8,-,N/A,,Overcast,340,2013-05-24 03:20:00
4:50 AM,44.6,33.8,66,29.95,6.2,North,9.2,-,N/A,,Overcast,10,2013-05-24 03:50:00
5:20 AM,44.6,33.8,66,29.95,6.2,North,9.2,-,N/A,,Overcast,360,2013-05-24 04:20:00
5:50 AM,44.6,35.6,71,29.95,6.2,North,9.2,-,N/A,,Overcast,350,2013-05-24 04:50:00
6:20 AM,44.6,35.6,71,29.98,6.2,North,9.2,-,N/A,,Mostly Cloudy,350,2013-05-24 05:20:00
6:50 AM,44.6,35.6,71,29.98,6.2,North,6.9,-,N/A,,Overcast,350,2013-05-24 05:50:00
7:20 AM,46.4,37.4,71,30.01,6.2,North,9.2,-,N/A,,Mostly Cloudy,10,2013-05-24 06:20:00
7:50 AM,46.4,39.2,76,30.01,6.2,NNE,11.5,-,N/A,,Mostly Cloudy,20,2013-05-24 06:50:00
8:20 AM,48.2,39.2,71,30.01,6.2,NE,15.0,-,N/A,Rain,Light Rain Showers,40,2013-05-24 07:20:00
8:50 AM,46.4,39.2,76,30.04,6.2,NNE,12.7,26.5,N/A,Rain,Light Rain Showers,30,2013-05-24 07:50:00
9:20 AM,51.8,41.0,67,30.04,6.2,NE,17.3,-,N/A,,Scattered Clouds,50,2013-05-24 08:20:00
9:50 AM,50.0,39.2,66,30.06,6.2,ENE,20.7,-,N/A,,Scattered Clouds,60,2013-05-24 08:50:00
10:20 AM,51.8,39.2,62,30.06,6.2,NE,17.3,-,N/A,,Scattered Clouds,50,2013-05-24 09:20:00
10:50 AM,51.8,41.0,67,30.09,6.2,ENE,20.7,-,N/A,,Scattered Clouds,60,2013-05-24 09:50:00
11:20 AM,51.8,41.0,67,30.09,6.2,ENE,19.6,-,N/A,,Scattered Clouds,60,2013-05-24 10:20:00
11:50 AM,51.8,41.0,67,30.09,6.2,ENE,19.6,-,N/A,,Scattered Clouds,60,2013-05-24 10:50:00
12:20 PM,51.8,41.0,67,30.12,6.2,ENE,18.4,-,N/A,,Scattered Clouds,60,2013-05-24 11:20:00
12:50 PM,51.8,41.0,67,30.12,6.2,ENE,18.4,-,N/A,,Scattered Clouds,70,2013-05-24 11:50:00
1:20 PM,53.6,41.0,62,30.12,6.2,ENE,19.6,-,N/A,,Scattered Clouds,70,2013-05-24 12:20:00
1:50 PM,51.8,41.0,67,30.12,6.2,ENE,18.4,-,N/A,,Scattered Clouds,60,2013-05-24 12:50:00
2:20 PM,51.8,41.0,67,30.15,6.2,NE,18.4,-,N/A,,Partly Cloudy,50,2013-05-24 13:20:00
2:50 PM,53.6,41.0,62,30.15,6.2,ENE,17.3,-,N/A,,Partly Cloudy,60,2013-05-24 13:50:00
3:20 PM,53.6,37.4,54,30.15,6.2,ENE,17.3,-,N/A,,Partly Cloudy,70,2013-05-24 14:20:00
3:50 PM,53.6,39.2,58,30.15,6.2,ENE,16.1,-,N/A,,Partly Cloudy,60,2013-05-24 14:50:00
4:20 PM,53.6,41.0,62,30.15,6.2,ENE,13.8,-,N/A,,Partly Cloudy,60,2013-05-24 15:20:00
4:50 PM,53.6,42.8,67,30.15,6.2,ENE,12.7,-,N/A,,Unknown,60,2013-05-24 15:50:00
5:20 PM,53.6,41.0,62,30.18,6.2,ENE,16.1,-,N/A,,Partly Cloudy,60,2013-05-24 16:20:00
5:50 PM,53.6,41.0,62,30.18,6.2,ENE,15.0,-,N/A,,Partly Cloudy,70,2013-05-24 16:50:00
6:20 PM,53.6,39.2,58,30.18,6.2,ENE,10.4,-,N/A,,Partly Cloudy,70,2013-05-24 17:20:00
6:50 PM,51.8,39.2,62,30.18,6.2,ENE,10.4,-,N/A,,Partly Cloudy,60,2013-05-24 17:50:00
7:20 PM,51.8,39.2,62,30.18,6.2,ENE,10.4,-,N/A,,Partly Cloudy,70,2013-05-24 18:20:00
7:50 PM,51.8,39.2,62,30.18,6.2,ENE,8.1,-,N/A,,Partly Cloudy,60,2013-05-24 18:50:00
8:20 PM,50.0,37.4,62,30.18,-9999.0,ENE,6.9,-,N/A,,Clear,70,2013-05-24 19:20:00
8:50 PM,48.2,37.4,66,30.18,-9999.0,East,6.9,-,N/A,,Clear,90,2013-05-24 19:50:00
9:20 PM,46.4,37.4,71,30.21,-9999.0,ENE,4.6,-,N/A,,Clear,70,2013-05-24 20:20:00
9:50 PM,44.6,37.4,76,30.21,-9999.0,Calm,Calm,-,N/A,,Clear,0,2013-05-24 20:50:00
10:20 PM,41.0,37.4,87,30.21,6.2,NE,3.5,-,N/A,,Unknown,50,2013-05-24 21:20:00
10:50 PM,41.0,39.2,93,30.21,6.2,Calm,Calm,-,N/A,,Unknown,0,2013-05-24 21:50:00
11:20 PM,42.8,41.0,93,30.21,-9999.0,Calm,Calm,-,N/A,,Clear,0,2013-05-24 22:20:00
11:50 PM,39.2,39.2,100,30.21,-9999.0,Calm,Calm,-,N/A,,Partly Cloudy,0,2013-05-24 22:50:00